Location: Albany
(35.0000°S, 118.0000°E)
Time: 16:23:17
(UTC-05:00)

Transit 2A - Visible Passes

Search period start: 26 November 2014 00:00
Search period end: 06 December 2014 00:00
Orbit: 596 x 966 km, 66.7° (Epoch: 26 November)

Date Brightness Start Highest point End Pass type
(mag) Time Alt. Az. Time Alt. Az. Time Alt. Az.
01 Dec 8.9 14:59:18 10° NE 15:02:20 15° ENE 15:05:39 10° ESE visible
04 Dec 7.7 14:58:58 10° N 15:04:31 36° ENE 15:09:51 10° SE visible
05 Dec 8.2 14:26:10 10° NNE 14:30:59 25° ENE 14:35:44 10° SE visible
